Powrót do katalogu

TIANQI 38

AktywnyŁącznośćLEO
NORAD 67477·PAYLOAD·🇨🇳 China

Wystrzelony Jan 15, 2026 z Yellow Sea Launch Area

Loading…

Następne Przeloty (najbliższe 24 godziny)

TLE

ŚwieżeSource: Space-Track

Epoka: Sep 14, 2026, 11:38 UTC

1 67477U 26010B   26257.48494956 -.00000015  00000-0  78062-4 0  9995
2 67477  44.9790  44.1577 0009453  36.8752 323.2730 13.99184538 33902

Śledź TIANQI 38 w czasie rzeczywistym z AllMySat

Download on the App Store